Regional Weather Roundup
Issued by NWS

Home | Current Version | Previous Version | Graphics & Text | Print | Product List | Glossary On
Versions: 1 2 3 4 5 6 7 8 9 10 11 12 13 14 15 16 17 18 19 20 21 22 23 24 25 26 27 28 29 30 31 32 33 34 35 36 37 38 39 40 41 42 43 44 45 46 47 48 49 50
000
ASUS44 KMEG 312200
RWRTN
TENNESSEE HOURLY STATE WEATHER ROUNDUP
NATIONAL WEATHER SERVICE MEMPHIS TN
400 PM CST SAT JAN 31 2015

TNZ002-004-019-021-049-052-054-088>092-312300-
WEST TENNESSEE

CITY           SKY/WX    TMP DP  RH WIND       PRES   REMARKS
MEMPHIS INTL   CLOUDY    47  23  38 E7        30.22F
NWS MEMPHIS      N/A     45 N/A N/A MISG        N/A
JACKSON        CLOUDY    46  22  38 E3        30.25F
DYERSBURG      CLOUDY    46  18  31 E6        30.27S
UNION CITY     SUNNY     43  25  49 CALM      30.26R
PARIS          SUNNY     43  21  42 CALM      30.26F
LEXINGTON      SUNNY     46  21  36 CALM      30.24F
SAVANNAH       SUNNY     48  21  34 CALM      30.25S
$$

TNZ008-025-027-028-033-062-065-066-312300-
NORTH MIDDLE TENNESSEE

CITY           SKY/WX    TMP DP  RH WIND       PRES   REMARKS
NASHVILLE      CLOUDY    46  12  25 E3        30.30F
CLARKSVILLE    CLOUDY    47  20  34 E9        30.26F
COOKEVILLE     SUNNY     46  12  25 CALM      30.28F
CROSSVILLE     CLOUDY    44  10  25 SE3       30.27F
$$

TNZ061-075-076-078-094-096-097-312300-
SOUTH MIDDLE TENNESSEE

CITY           SKY/WX    TMP DP  RH WIND       PRES   REMARKS
FAYETTEVILLE   SUNNY     46  12  25 MISG      30.27S
TULLAHOMA      SUNNY     46   7  19 CALM      30.28S
WINCHESTER     MOSUNNY   46  21  36 NE5       30.28S
COLUMBIA       SUNNY     46  19  34 E7        30.25F
SHELBYVILLE    MOSUNNY   46  19  34 CALM      30.29S
$$

TNZ017-018-042-046-047-312300-
NORTHEAST TENNESSEE

CITY           SKY/WX    TMP DP  RH WIND       PRES   REMARKS
TRI CITIES     MOCLDY    43  10  26 SW7       30.29F
ELIZABETHTON   CLEAR     41   3  20 W6        30.28S
$$

TNZ012-013-036-069-073-074-312300-
CENTRAL EAST TENNESSEE

CITY           SKY/WX    TMP DP  RH WIND       PRES   REMARKS
KNOXVILLE      CLOUDY    44  16  32 CALM      30.30F
OAK RIDGE      MOSUNNY   46  10  23 CALM      30.31F
GATLINBURG     CLEAR     45  10  24 CALM      30.30S
$$

TNZ083-085-099-312300-
SOUTHEAST TENNESSEE

CITY           SKY/WX    TMP DP  RH WIND       PRES   REMARKS
CHATTANOOGA    CLOUDY    48  18  30 N5        30.30F
$$

SKY/WX REPORTED AS FAIR MEANS FEW OR NO CLOUDS BELOW
12 THOUSAND FEET.



USA.gov is the U.S. government's official web portal to all federal, state and local government web resources and services.